FW1140 Weather Reports


Display with metric or nautical units.
time (UTC)temp
F
wind
direction
speed
MPH
gust
MPH
rain 1hr
in
rain 24hr
in
rain mn
in
humidity
%
barometer
mb
20260903014552 72 82 0.0 0.0 0.00 0.06 0.00 85 1005.5
20260903013032 72 82 0.0 0.0 0.00 0.06 0.00 84 1005.3
20260903011544 74 82 0.0 0.0 0.00 0.06 0.00 81 1005.2
20260903010042 75 82 0.0 0.0 0.00 0.06 0.00 80 1005.2
20260903004604 76 82 0.0 1.0 0.00 0.07 0.00 77 1005.2
20260903003106 78 82 0.0 2.0 0.00 0.07 0.00 75 1005.2
20260903001508 79 77 2.0 5.0 0.00 0.07 0.00 71 1005.1
20260903000029 80 51 1.0 6.0 0.00 0.07 0.00 70 1005.1
20260902234532 81 82 3.0 8.0 0.00 0.07 0.00 67 1005.1
20260902233012 82 45 4.0 7.0 0.00 0.07 0.00 65 1005.2
20260902231532 83 68 3.0 8.0 0.00 0.07 0.00 64 1005.3
20260902230104 83 90 5.0 9.0 0.00 0.07 0.00 62 1005.3
20260902224516 84 74 2.0 7.0 0.00 0.07 0.00 61 1005.2
20260902223029 84 54 5.0 10.0 0.00 0.07 0.00 58 1005.4
20260902221542 85 95 5.0 9.0 0.00 0.07 0.00 58 1005.5
20260902220027 85 76 4.0 12.0 0.00 0.07 0.00 57 1005.4
20260902214545 86 87 2.0 8.0 0.00 0.07 0.00 56 1005.4
20260902213125 85 63 4.0 8.0 0.00 0.07 0.00 57 1005.6
20260902211538 86 103 3.0 10.0 0.00 0.07 0.00 56 1005.8
20260902210057 86 60 4.0 10.0 0.00 0.07 0.00 55 1005.9
20260902204551 85 73 4.0 11.0 0.00 0.07 0.00 57 1006.0
20260902203037 85 115 3.0 10.0 0.00 0.07 0.00 53 1006.3
20260902201512 87 63 4.0 10.0 0.00 0.07 0.00 52 1006.3
20260902200023 87 39 4.0 10.0 0.00 0.07 0.00 52 1006.5
20260902193055 86 33 5.0 10.0 0.00 0.07 0.00 52 1006.9
20260902191614 85 129 3.0 9.0 0.00 0.07 0.00 50 1007.0
20260902190005 85 103 4.0 11.0 0.00 0.07 0.00 52 1007.1
20260902184605 85 51 5.0 10.0 0.00 0.07 0.00 50 1007.3
20260902183037 85 53 5.0 10.0 0.00 0.07 0.00 51 1007.5
20260902181507 83 59 5.0 11.0 0.00 0.07 0.00 51 1007.6
20260902180021 83 73 5.0 10.0 0.00 0.07 0.00 52 1007.9
20260902174545 82 70 5.0 10.0 0.00 0.07 0.00 53 1007.9
20260902173113 83 92 5.0 10.0 0.00 0.07 0.00 53 1008.0
20260902171513 81 89 5.0 11.0 0.00 0.07 0.00 54 1008.1
20260902170017 80 78 5.0 10.0 0.00 0.07 0.00 56 1008.0
20260902164511 81 63 5.0 9.0 0.00 0.07 0.00 54 1008.0
20260902163052 79 69 4.0 9.0 0.00 0.07 0.00 60 1008.0
20260902161510 78 82 3.0 6.0 0.00 0.07 0.00 64 1008.0
20260902160033 77 45 2.0 6.0 0.00 0.07 0.00 68 1008.0
20260902154536 75 53 2.0 6.0 0.00 0.07 0.00 69 1008.1
20260902153005 75 13 1.0 6.0 0.00 0.07 0.00 73 1008.1
20260902151530 75 119 2.0 5.0 0.00 0.07 0.00 73 1008.4
20260902144632 71 62 2.0 5.0 0.00 0.07 0.00 79 1008.6
20260902143016 72 78 2.0 4.0 0.00 0.07 0.00 74 1008.8
20260902141503 71 15 1.0 4.0 0.00 0.07 0.00 78 1008.7
20260902140038 71 359 1.0 4.0 0.00 0.07 0.00 81 1008.7
20260902134532 68 354 0.0 1.0 0.00 0.07 0.00 83 1008.8
20260902133101 65 283 0.0 4.0 0.00 0.07 0.00 89 1009.4
20260902131611 63 287 0.0 1.0 0.00 0.07 0.00 90 1009.1
20260902130105 62 277 0.0 2.0 0.00 0.07 0.00 90 1009.4
20260902124541 62 231 0.0 6.0 0.00 0.07 0.00 90 1009.8
20260902123023 61 323 2.0 6.0 0.00 0.07 0.00 90 1009.6
20260902121505 61 297 2.0 7.0 0.00 0.07 0.00 91 1009.4
20260902120038 59 341 0.0 4.0 0.00 0.07 0.00 91 1008.6
20260902114558 59 307 1.0 4.0 0.00 0.07 0.00 92 1008.6
20260902113109 59 294 1.0 3.0 0.00 0.07 0.00 92 1008.5
20260902111540 59 316 1.0 3.0 0.00 0.07 0.00 92 1008.6
20260902110022 59 298 0.0 3.0 0.00 0.07 0.00 92 1008.6
20260902104547 59 300 1.0 3.0 0.00 0.07 0.00 93 1008.5
20260902103003 59 300 0.0 1.0 0.00 0.07 0.00 93 1008.6
20260902101519 59 300 0.0 3.0 0.00 0.07 0.00 93 1008.6
20260902100030 59 300 0.0 0.0 0.00 0.07 0.00 92 1008.7
20260902094517 59 300 0.0 0.0 0.00 0.07 0.00 92 1009.0
20260902093006 61 300 0.0 2.0 0.00 0.07 0.00 91 1009.0
20260902091530 0 0.0 0.0 0.00 0.07 0.00 1009.0
20260902090051 0 0.0 0.0 0.00 0.07 0.00 1008.9
20260902084545 0 0.0 0.0 0.00 0.07 0.00 1009.2
20260902083010 0 0.0 0.0 0.00 0.07 0.00 1009.3
20260902081529 0 0.0 0.0 0.00 0.07 0.00 1009.2
20260902080037 0 0.0 0.0 0.00 0.07 0.00 1009.3
20260902074527 0 0.0 0.0 0.00 0.07 0.00 1008.9
20260902073016 0 0.0 0.0 0.00 0.07 0.00 1009.3
20260902071543 0 0.0 0.0 0.00 0.07 0.00 1009.0
20260902070004 0 0.0 0.0 0.00 0.07 0.00 1008.5
20260902064519 0 0.0 0.0 0.00 0.07 0.00 1008.2
20260902063039 0 0.0 0.0 0.00 0.07 0.00 1008.2
20260902060014 0 0.0 0.0 0.00 0.07 0.00 1008.6
20260902054535 0 0.0 0.0 0.00 0.07 0.00 1008.7
20260902053044 62 310 0.0 2.0 0.00 0.07 0.00 90 1008.8
20260902051537 63 310 0.0 3.0 0.00 0.07 0.00 90 1008.7
20260902050009 64 303 0.0 1.0 0.00 0.07 0.07 88 1008.4
20260902044539 64 303 0.0 4.0 0.00 0.07 0.07 88 1009.1
20260902043109 65 1 0.0 2.0 0.00 0.07 0.07 85 1009.2
20260902041524 64 73 0.0 2.0 0.00 0.07 0.07 86 1009.0
20260902040020 64 319 0.0 0.0 0.00 0.07 0.07 89 1009.1
20260902034539 64 319 0.0 1.0 0.02 0.07 0.07 89 1009.4
20260902033041 64 319 1.0 3.0 0.05 0.07 0.07 88 1009.4
20260902031552 65 142 0.0 3.0 0.05 0.07 0.07 87 1009.5
20260902030052 66 98 1.0 3.0 0.05 0.07 0.07 84 1009.6
20260902024557 66 127 0.0 2.0 0.03 0.05 0.05 90 1009.8
20260902023114 66 260 0.0 2.0 0.00 0.02 0.02 89 1010.0
20260902021518 66 260 1.0 2.0 0.01 0.02 0.02 90 1009.8
20260902020039 67 145 0.0 1.0 0.01 0.02 0.02 90 1009.3